UGSB

Batumi International Airport

Airport
ICAO code
UGSB
IATA Code
BUS
Summary
ICAO Region
APAC
ICAO Territory
Location

Batumi,

Serving
Batumi
Elevation
105 ft
Coordinates
41° 36' 37" N , 41° 35' 59" E
Metar
UGSB 222330Z 13013KT CAVOK 23/19 Q1009 NOSIG

Description

Batumi International Airport is an airport located 2 km south of Batumi, a city on the Black Sea coast and capital of Adjara, an autonomous republic in southwest Georgia. The airport is 20 km northeast of Hopa, Turkey, and serves as a domestic and international airport for Georgia and northeastern Turkey.

Runways

Designator Length Width Surface Rops
13/31 2233 46 ASP No/No

Airport map

Aerial View

SKYbrary Partners:

Safety knowledge contributed by: